period_start,C,m1,H,J0,J1,J2,J3,J4,J5,JA,JB,JC,JD,JJ,JK,JN,#
2013-08-11 00:00:29,-0.01,1.54,0.00,31.63,36.83,37.25,5.88,31.83,1006.38,2007.04,2780.67,2850.05,3078.86,350.67,312.21,22.72,0000 0000 0000 0000 000000
2013-08-11 00:01:29,0.01,1.54,0.00,31.56,36.81,37.18,5.73,32.00,1006.38,2007.11,2780.58,2850.04,3078.94,350.55,312.18,22.73,0000 0000 0000 0000 000000
2013-08-11 00:02:30,0.10,1.54,0.00,31.43,36.79,37.13,5.84,31.92,1006.37,2007.23,2780.38,2850.06,3078.96,350.52,312.28,22.73,0000 0000 0000 0000 000000
2013-08-11 00:03:30,0.07,1.54,0.00,31.22,36.77,37.08,5.79,31.67,1006.38,2007.39,2780.23,2850.05,3078.94,351.01,312.93,22.74,0000 0000 0000 0000 000000
2013-08-11 00:04:30,0.19,1.54,0.00,31.08,36.75,37.02,5.75,31.83,1006.37,2007.70,2780.21,2850.17,3078.96,349.80,312.00,22.74,0000 0000 0000 0000 000000
2013-08-11 00:05:31,0.19,1.55,0.00,31.12,36.73,36.98,5.85,31.92,1006.36,2007.86,2780.18,2850.40,3078.98,350.33,312.09,22.75,0000 0000 0000 0000 000000
2013-08-11 00:06:31,0.07,1.55,0.00,31.24,36.71,36.97,5.67,31.92,1006.36,2007.94,2780.15,2850.45,3078.99,349.28,311.42,22.76,0000 0000 0000 0000 000000
2013-08-11 00:07:31,0.04,1.55,0.00,31.29,36.69,36.95,5.73,31.83,1006.36,2007.97,2780.08,2850.61,3078.99,349.85,311.93,22.76,0000 0000 0000 0000 000000
2013-08-11 00:08:31,-0.01,1.55,0.00,31.32,36.66,36.92,5.84,32.04,1006.36,2007.99,2780.05,2850.81,3078.99,350.43,312.52,22.77,0000 0000 0000 0000 000000
2013-08-11 00:09:32,-0.03,1.55,0.00,31.31,36.64,36.88,5.79,31.83,1006.36,2007.99,2780.06,2850.92,3078.99,350.76,312.62,22.77,0000 0000 0000 0000 000000
2013-08-11 00:10:32,-0.01,1.55,0.00,31.19,36.62,36.83,5.64,31.83,1006.36,2008.01,2780.04,2850.97,3079.00,348.92,311.67,22.78,0000 0000 0000 0000 000000
2013-08-11 00:11:32,0.01,1.55,0.00,31.11,36.59,36.77,5.73,31.79,1006.34,2008.03,2780.02,2850.99,3079.02,350.23,312.05,22.78,0000 0000 0000 0000 000000
2013-08-11 00:12:33,0.02,1.55,0.00,31.14,36.57,36.75,5.81,31.88,1006.32,2008.16,2780.05,2850.99,3079.07,350.32,312.01,22.79,0000 0000 0000 0000 000000
2013-08-11 00:13:33,0.09,1.55,0.00,31.11,36.54,36.71,5.82,31.88,1006.27,2008.29,2780.02,2850.99,3079.11,350.26,312.04,22.80,0000 0000 0000 0000 000000
2013-08-11 00:14:33,0.16,1.55,0.00,31.06,36.52,36.66,5.73,32.08,1006.17,2008.63,2780.03,2850.99,3079.24,349.20,311.18,22.80,0000 0000 0000 0000 000000
2013-08-11 00:15:34,0.21,1.55,0.00,31.11,36.49,36.61,5.82,31.71,1006.14,2008.83,2780.03,2851.00,3079.50,349.66,311.83,22.81,0000 0000 0000 0000 000000
2013-08-11 00:16:34,0.12,1.55,0.00,31.18,36.47,36.60,5.81,31.88,1006.14,2008.92,2780.04,2851.04,3079.75,351.33,313.61,22.81,0000 0000 0000 0000 000000
2013-08-11 00:17:34,0.02,1.55,0.00,31.11,36.44,36.55,5.79,31.92,1006.14,2008.97,2780.05,2851.15,3079.89,349.64,312.01,22.82,0000 0000 0000 0000 000000
2013-08-11 00:18:34,-0.02,1.55,0.00,31.09,36.41,36.50,5.73,31.83,1006.04,2008.98,2780.09,2851.34,3079.95,349.65,311.75,22.83,0000 0000 0000 0000 000000
2013-08-11 00:19:34,-0.04,1.55,0.00,31.07,36.38,36.48,5.73,31.83,1006.06,2008.99,2780.09,2851.55,3079.98,349.29,311.46,22.83,0000 0000 0000 0000 000000
2013-08-11 00:20:35,-0.06,1.55,0.00,31.11,36.35,36.45,5.73,31.92,1005.94,2008.99,2780.11,2851.70,3079.99,348.99,311.13,22.84,0000 0000 0000 0000 000000
2013-08-11 00:21:35,-0.04,1.55,0.00,31.09,36.33,36.42,5.73,32.04,1005.92,2009.07,2780.15,2851.84,3079.99,349.13,311.26,22.84,0000 0000 0000 0000 000000
2013-08-11 00:22:35,0.03,1.55,0.00,31.08,36.30,36.39,5.69,31.83,1005.90,2009.23,2780.22,2851.92,3080.00,350.25,312.26,22.85,0000 0000 0000 0000 000000
2013-08-11 00:23:35,0.12,1.55,0.00,31.09,36.27,36.38,5.80,31.71,1005.89,2009.58,2780.27,2851.96,3080.03,350.46,312.44,22.85,0000 0000 0000 0000 000000
2013-08-11 00:24:36,0.26,1.55,0.00,31.08,36.24,36.35,5.88,32.29,1005.94,2009.81,2780.36,2851.99,3080.09,350.23,312.55,22.86,0000 0000 0000 0000 000000
2013-08-11 00:25:36,0.15,1.55,0.00,31.03,36.21,36.32,5.79,31.83,1005.91,2009.91,2780.44,2851.99,3080.18,350.29,312.34,22.87,0000 0000 0000 0000 000000
2013-08-11 00:26:36,0.04,1.55,0.00,30.96,36.19,36.28,5.83,32.13,1005.91,2009.96,2780.49,2851.99,3080.38,350.10,312.26,22.87,0000 0000 0000 0000 000000
2013-08-11 00:27:37,0.01,1.55,0.00,30.93,36.16,36.23,5.81,32.21,1005.90,2009.98,2780.44,2852.02,3080.64,350.07,312.00,22.88,0000 0000 0000 0000 000000
2013-08-11 00:28:37,-0.02,1.55,0.00,30.89,36.13,36.20,5.74,32.13,1005.89,2010.00,2780.44,2852.05,3080.74,349.62,312.08,22.88,0000 0000 0000 0000 000000
2013-08-11 00:29:37,-0.01,1.55,0.00,30.87,36.10,36.17,5.82,32.21,1005.90,2010.00,2780.56,2852.15,3080.89,350.16,312.39,22.89,0000 0000 0000 0000 000000
2013-08-11 00:30:38,-0.05,1.55,0.00,30.82,36.07,36.15,5.68,32.00,1005.91,2010.05,2780.52,2852.28,3080.94,349.01,311.42,22.90,0000 0000 0000 0000 000000
2013-08-11 00:31:38,-0.00,1.55,0.00,30.78,36.04,36.09,5.74,31.92,1005.89,2010.16,2780.47,2852.57,3080.97,348.98,311.43,22.90,0000 0000 0000 0000 000000
2013-08-11 00:32:38,0.03,1.55,0.00,30.78,36.02,36.09,5.85,32.13,1005.89,2010.46,2780.49,2852.79,3080.99,350.24,312.81,22.91,0000 0000 0000 0000 000000
2013-08-11 00:33:39,0.20,1.55,0.00,30.80,35.99,36.05,5.93,32.33,1005.88,2010.72,2780.46,2852.87,3080.99,350.41,312.75,22.91,0000 0000 0000 0000 000000
2013-08-11 00:34:39,0.19,1.55,0.00,30.84,35.96,36.03,5.71,32.13,1005.89,2010.87,2780.43,2852.93,3080.99,350.29,313.09,22.92,0000 0000 0000 0000 000000
2013-08-11 00:35:39,0.10,1.55,0.00,30.84,35.93,36.02,5.81,32.33,1005.87,2010.94,2780.41,2852.96,3080.99,350.19,312.44,22.93,0000 0000 0000 0000 000000
2013-08-11 00:36:39,0.05,1.56,0.00,30.80,35.90,35.99,5.72,32.04,1005.87,2010.98,2780.62,2852.98,3081.06,349.73,312.08,22.93,0000 0000 0000 0000 000000
2013-08-11 00:37:40,-0.01,1.55,0.00,30.84,35.87,35.95,5.76,31.88,1005.90,2010.99,2780.74,2852.99,3081.21,349.89,312.19,22.94,0000 0000 0000 0000 000000
2013-08-11 00:38:40,-0.03,1.55,0.00,30.89,35.84,35.93,5.89,31.96,1005.89,2011.04,2780.85,2852.99,3081.47,350.75,312.89,22.94,0000 0000 0000 0000 000000
2013-08-11 00:39:40,-0.02,1.55,0.00,30.87,35.82,35.94,5.70,31.79,1005.88,2011.18,2780.90,2853.01,3081.69,349.87,312.13,22.95,0000 0000 0000 0000 000000
2013-08-11 00:40:40,0.10,1.56,0.00,30.91,35.79,35.93,5.82,31.96,1005.88,2011.49,2780.95,2853.16,3081.86,349.61,312.14,22.95,0000 0000 0000 0000 000000
2013-08-11 00:41:41,0.23,1.56,0.00,30.90,35.76,35.92,5.73,32.04,1005.90,2011.79,2780.97,2853.33,3081.94,349.33,311.51,22.96,0000 0000 0000 0000 000000
2013-08-11 00:42:41,0.14,1.56,0.00,30.93,35.73,35.90,6.03,32.63,1005.88,2011.91,2780.94,2853.52,3081.98,351.11,313.35,22.97,0000 0000 0000 0000 000000
2013-08-11 00:43:41,0.02,1.56,0.00,30.99,35.70,35.90,5.70,32.38,1005.87,2011.95,2780.89,2853.58,3081.98,350.28,312.18,22.97,0000 0000 0000 0000 000000
2013-08-11 00:44:41,0.02,1.56,0.00,31.00,35.68,35.87,5.69,32.33,1005.88,2011.98,2780.88,2853.72,3081.99,350.03,312.35,22.98,0000 0000 0000 0000 000000
2013-08-11 00:45:41,-0.01,1.56,0.00,31.00,35.65,35.87,5.71,32.29,1005.88,2011.99,2780.91,2853.83,3081.99,349.95,311.96,22.98,0000 0000 0000 0000 000000
2013-08-11 00:46:41,-0.03,1.56,0.00,31.01,35.63,35.88,5.80,32.38,1005.88,2011.99,2780.96,2853.93,3082.01,350.30,312.37,22.99,0000 0000 0000 0000 000000
2013-08-11 00:47:41,-0.02,1.56,0.00,31.08,35.60,35.87,5.71,32.25,1005.87,2012.01,2780.99,2853.97,3082.04,349.50,311.81,23.00,0000 0000 0000 0000 000000
2013-08-11 00:48:42,0.01,1.56,0.00,31.10,35.58,35.84,5.85,32.25,1005.87,2012.15,2780.99,2853.99,3082.13,349.98,312.57,23.00,0000 0000 0000 0000 000000
2013-08-11 00:49:42,0.13,1.56,0.00,31.14,35.55,35.82,5.78,32.13,1005.87,2012.35,2780.99,2853.99,3082.25,349.96,312.13,23.01,0000 0000 0000 0000 000000
2013-08-11 00:50:42,0.17,1.56,0.00,31.16,35.53,35.83,5.61,32.21,1005.87,2012.66,2780.99,2854.00,3082.39,349.56,311.43,23.01,0000 0000 0000 0000 000000
2013-08-11 00:51:42,0.21,1.56,0.00,31.15,35.51,35.84,5.68,32.21,1005.87,2012.84,2780.99,2854.02,3082.59,349.18,311.41,23.02,0000 0000 0000 0000 000000
2013-08-11 00:52:43,0.09,1.56,0.00,31.14,35.48,35.86,5.79,32.29,1005.87,2012.94,2780.99,2854.11,3082.76,350.23,312.17,23.02,0000 0000 0000 0000 000000
2013-08-11 00:53:43,0.01,1.56,0.00,31.19,35.46,35.85,5.79,32.08,1005.87,2012.97,2780.99,2854.28,3082.87,350.11,312.16,23.03,0000 0000 0000 0000 000000
2013-08-11 00:54:43,-0.03,1.56,0.00,31.19,35.44,35.84,5.62,31.92,1005.87,2012.99,2780.99,2854.58,3082.95,349.56,311.52,23.04,0000 0000 0000 0000 000000
2013-08-11 00:55:43,-0.07,1.56,0.00,31.25,35.42,35.82,5.84,31.83,1005.87,2012.99,2780.99,2854.72,3082.98,350.73,312.76,23.04,0000 0000 0000 0000 000000
2013-08-11 00:56:43,-0.03,1.56,0.00,31.29,35.40,35.83,5.71,32.04,1005.87,2013.01,2780.99,2854.80,3082.99,349.80,311.54,23.05,0000 0000 0000 0000 000000
2013-08-11 00:57:44,0.01,1.56,0.00,31.29,35.38,35.81,5.70,32.04,1005.86,2013.05,2780.99,2854.87,3082.99,349.27,311.42,23.05,0000 0000 0000 0000 000000
2013-08-11 00:58:44,0.02,1.56,0.00,31.28,35.35,35.81,5.66,31.75,1005.84,2013.31,2780.99,2854.95,3083.00,350.58,312.33,23.06,0000 0000 0000 0000 000000
2013-08-11 00:59:44,0.22,1.56,0.00,31.30,35.34,35.82,5.81,32.13,1005.84,2013.60,2781.00,2854.98,3083.00,350.47,312.21,23.07,0000 0000 0000 0000 000000
2013-08-11 01:00:44,0.21,1.56,0.00,31.35,35.32,35.83,5.79,32.17,1005.82,2013.79,2781.00,2854.99,3083.01,350.44,312.13,23.07,0000 0000 0000 0000 000000
2013-08-11 01:01:45,0.17,1.56,0.00,31.36,35.30,35.83,5.68,32.13,1005.80,2013.91,2781.00,2854.99,3083.00,350.33,312.21,23.08,0000 0000 0000 0000 000000
2013-08-11 01:02:45,0.09,1.56,0.00,31.37,35.28,35.82,5.79,31.67,1005.77,2013.96,2781.00,2854.99,3083.02,350.72,312.35,23.08,0000 0000 0000 0000 000000
2013-08-11 01:03:45,0.03,1.56,0.00,31.41,35.27,35.83,5.74,32.25,1005.69,2013.98,2781.01,2854.99,3083.13,349.56,311.25,23.09,0000 0000 0000 0000 000000
2013-08-11 01:04:45,0.00,1.56,0.00,31.42,35.25,35.86,5.75,32.04,1005.67,2013.99,2781.00,2855.00,3083.18,350.53,311.88,23.10,0000 0000 0000 0000 000000
2013-08-11 01:05:46,0.00,1.56,0.00,31.42,35.23,35.88,5.56,32.29,1005.58,2013.99,2781.00,2855.00,3083.21,348.89,310.50,23.10,0000 0000 0000 0000 000000
2013-08-11 01:06:46,0.00,1.56,0.00,31.42,35.22,35.89,5.78,32.21,1005.55,2014.02,2781.00,2855.01,3083.28,350.60,311.82,23.11,0000 0000 0000 0000 000000
2013-08-11 01:07:46,0.01,1.56,0.00,31.49,35.20,35.88,5.69,32.33,1005.56,2014.02,2781.00,2855.05,3083.33,349.33,310.55,23.11,0000 0000 0000 0000 000000
2013-08-11 01:08:46,-0.02,1.56,0.00,31.55,35.19,35.86,5.72,32.17,1005.63,2014.04,2781.00,2855.08,3083.48,350.38,311.79,23.12,0000 0000 0000 0000 000000
2013-08-11 01:09:46,-0.00,1.56,0.00,31.53,35.17,35.88,5.65,32.00,1005.67,2014.15,2781.00,2855.15,3083.76,349.64,311.48,23.12,0000 0000 0000 0000 000000
2013-08-11 01:10:46,0.03,1.56,0.00,31.53,35.15,35.91,5.53,32.17,1005.67,2014.40,2781.00,2855.19,3083.88,349.57,311.12,23.13,0000 0000 0000 0000 000000
2013-08-11 01:11:47,0.20,1.57,0.00,31.55,35.15,35.94,5.60,32.17,1005.67,2014.65,2781.00,2855.25,3083.89,349.71,311.24,23.14,0000 0000 0000 0000 000000
2013-08-11 01:12:47,0.16,1.57,0.00,31.58,35.13,35.92,5.72,31.83,1005.64,2014.73,2781.00,2855.25,3083.91,349.48,311.19,23.14,0000 0000 0000 0000 000000
2013-08-11 01:13:47,0.06,1.57,0.00,31.61,35.12,35.94,5.81,32.13,1005.66,2014.87,2781.00,2855.33,3083.91,350.34,311.45,23.15,0000 0000 0000 0000 000000
2013-08-11 01:14:47,0.06,1.57,0.00,31.60,35.10,35.94,5.72,32.13,1005.62,2014.95,2781.00,2855.51,3083.95,349.65,311.00,23.15,0000 0000 0000 0000 000000
2013-08-11 01:15:47,0.02,1.57,0.00,31.60,35.10,35.96,5.92,32.33,1005.59,2014.98,2781.00,2855.50,3083.96,350.93,312.32,23.16,0000 0000 0000 0000 000000
2013-08-11 01:16:48,0.02,1.57,0.00,31.61,35.08,35.96,5.73,32.13,1005.58,2014.99,2781.00,2855.51,3083.97,350.52,311.34,23.17,0000 0000 0000 0000 000000
2013-08-11 01:17:48,0.01,1.57,0.00,31.63,35.08,35.98,5.76,32.17,1005.57,2014.99,2780.99,2855.45,3083.92,349.78,311.47,23.17,0000 0000 0000 0000 000000
2013-08-11 01:18:48,0.03,1.57,0.00,31.71,35.07,36.01,5.84,32.17,1005.66,2014.99,2780.94,2855.47,3083.94,350.50,311.53,23.18,0000 0000 0000 0000 000000
2013-08-11 01:19:48,-0.01,1.57,0.00,31.72,35.05,36.04,5.79,32.21,1005.64,2015.00,2780.96,2855.68,3083.93,349.88,311.35,23.18,0000 0000 0000 0000 000000
2013-08-11 01:20:49,-0.05,1.57,0.00,31.75,35.05,36.06,5.67,32.13,1005.72,2015.05,2780.98,2855.81,3083.95,348.85,310.59,23.19,0000 0000 0000 0000 000000
2013-08-11 01:21:49,0.02,1.57,0.00,31.69,35.04,36.09,5.63,32.25,1005.72,2015.13,2780.99,2855.81,3083.96,349.67,311.07,23.20,0000 0000 0000 0000 000000
2013-08-11 01:22:49,0.06,1.57,0.00,31.69,35.03,36.11,5.82,32.21,1005.70,2015.15,2780.96,2855.78,3083.97,349.94,311.29,23.20,0000 0000 0000 0000 000000
2013-08-11 01:23:49,0.03,1.57,0.00,31.72,35.02,36.11,5.76,32.17,1005.74,2015.26,2780.90,2855.73,3083.95,349.89,311.24,23.21,0000 0000 0000 0000 000000
2013-08-11 01:24:50,0.11,1.57,0.00,31.74,35.02,36.15,5.81,32.04,1005.68,2015.39,2780.83,2855.73,3083.92,350.31,311.57,23.21,0000 0000 0000 0000 000000
2013-08-11 01:25:50,0.18,1.57,0.00,31.72,35.01,36.19,5.77,32.13,1005.69,2015.51,2780.59,2855.71,3083.93,350.16,311.45,23.22,0000 0000 0000 0000 000000
2013-08-11 01:26:50,0.07,1.57,0.00,31.73,35.00,36.23,5.71,32.04,1005.72,2015.68,2780.36,2855.63,3083.92,349.92,311.25,23.22,0000 0000 0000 0000 000000
2013-08-11 01:27:50,0.26,1.57,0.00,31.77,35.00,36.26,5.79,32.13,1005.64,2015.74,2780.30,2855.50,3083.84,349.91,311.17,23.23,0000 0000 0000 0000 000000
2013-08-11 01:28:50,0.10,1.57,0.00,31.80,35.00,36.24,5.78,32.17,1005.61,2015.81,2780.16,2855.40,3083.74,350.32,311.21,23.24,0000 0000 0000 0000 000000
2013-08-11 01:29:51,0.10,1.57,0.00,31.86,35.00,36.24,5.61,32.08,1005.66,2015.89,2780.07,2855.36,3083.66,349.47,310.86,23.24,0000 0000 0000 0000 000000
2013-08-11 01:30:51,0.10,1.57,0.00,31.88,34.98,36.23,5.83,32.21,1005.64,2015.94,2780.03,2855.30,3083.61,350.66,311.99,23.25,0000 0000 0000 0000 000000
2013-08-11 01:31:51,0.07,1.57,0.00,31.90,34.98,36.22,5.91,32.13,1005.72,2015.95,2780.01,2855.21,3083.40,350.45,311.54,23.25,0000 0000 0000 0000 000000
2013-08-11 01:32:51,0.06,1.57,0.00,31.91,34.97,36.27,5.76,31.92,1005.77,2015.95,2780.00,2855.13,3083.25,350.64,311.34,23.26,0000 0000 0000 0000 000000
2013-08-11 01:33:52,0.03,1.57,0.00,31.89,34.97,36.33,5.82,32.17,1005.79,2015.98,2780.00,2855.11,3083.22,350.14,311.30,23.27,0000 0000 0000 0000 000000
2013-08-11 01:34:52,0.02,1.58,0.00,31.90,34.97,36.39,5.86,31.88,1005.80,2015.99,2780.00,2855.15,3083.21,350.37,311.50,23.27,0000 0000 0000 0000 000000
2013-08-11 01:35:52,0.00,1.58,0.00,31.94,34.97,36.38,5.87,32.08,1005.81,2015.99,2780.00,2855.10,3083.16,350.88,311.59,23.28,0000 0000 0000 0000 000000
2013-08-11 01:36:52,0.03,1.58,0.00,31.95,34.97,36.40,5.67,31.83,1005.80,2015.99,2779.98,2855.05,3083.09,350.00,311.17,23.28,0000 0000 0000 0000 000000
2013-08-11 01:37:52,0.02,1.58,0.00,32.00,34.96,36.44,5.63,31.71,1005.81,2015.99,2779.94,2855.03,3083.05,349.18,310.31,23.29,0000 0000 0000 0000 000000
2013-08-11 01:38:53,0.01,1.58,0.00,32.02,34.95,36.62,5.76,32.25,1005.78,2015.99,2779.94,2855.03,3083.02,350.13,311.40,23.29,0000 0000 0000 0000 000000
2013-08-11 01:39:53,0.00,1.58,0.00,32.05,34.95,36.67,5.71,32.21,1005.78,2015.99,2779.76,2855.01,3083.00,349.32,310.37,23.30,0000 0000 0000 0000 000000
2013-08-11 01:40:53,0.04,1.58,0.00,32.05,34.95,36.74,5.85,32.21,1005.79,2015.99,2779.48,2855.00,3083.00,350.41,311.10,23.31,0000 0000 0000 0000 000000
2013-08-11 01:41:53,0.04,1.58,0.00,32.00,34.95,36.79,5.70,32.08,1005.82,2015.99,2779.24,2855.00,3083.00,350.47,311.18,23.31,0000 0000 0000 0000 000000
2013-08-11 01:42:53,0.03,1.58,0.00,32.05,34.95,36.79,5.64,32.29,1005.84,2015.99,2779.11,2855.00,3083.00,349.78,310.64,23.32,0000 0000 0000 0000 000000
2013-08-11 01:43:53,0.02,1.58,0.00,32.08,34.95,36.85,5.95,32.33,1005.84,2015.99,2779.04,2854.98,3082.98,349.97,310.97,23.32,0000 0000 0000 0000 000000
2013-08-11 01:44:54,0.02,1.58,0.00,32.07,34.95,36.90,5.66,32.13,1005.80,2015.99,2779.01,2854.96,3082.96,349.38,310.60,23.33,0000 0000 0000 0000 000000
2013-08-11 01:45:54,0.01,1.58,0.00,32.05,34.95,36.87,5.65,32.29,1005.82,2015.99,2779.00,2854.97,3082.94,350.15,311.16,23.34,0000 0000 0000 0000 000000
2013-08-11 01:46:54,0.00,1.58,0.00,32.09,34.95,36.84,5.72,32.13,1005.78,2016.00,2778.99,2854.98,3082.93,349.85,310.83,23.34,0000 0000 0000 0000 000000
2013-08-11 01:47:55,0.00,1.58,0.00,32.13,34.95,36.83,5.75,32.13,1005.78,2016.01,2778.98,2854.98,3082.88,350.73,311.39,23.35,0000 0000 0000 0000 000000
2013-08-11 01:48:55,0.02,1.58,0.00,32.10,34.95,36.86,5.75,32.29,1005.85,2016.01,2778.97,2854.96,3082.80,349.57,310.60,23.35,0000 0000 0000 0000 000000
2013-08-11 01:49:55,0.00,1.58,0.00,32.11,34.96,36.90,5.64,32.13,1005.85,2016.00,2778.85,2854.86,3082.51,349.67,310.42,23.36,0000 0000 0000 0000 000000
2013-08-11 01:50:56,0.11,1.58,0.00,32.13,34.96,36.88,5.73,32.13,1005.85,2016.00,2778.65,2854.69,3082.29,349.72,310.71,23.36,0000 0000 0000 0000 000000
2013-08-11 01:51:56,0.10,1.58,0.00,32.20,34.97,36.88,5.84,32.13,1005.86,2016.00,2778.59,2854.64,3082.17,350.63,311.27,23.37,0000 0000 0000 0000 000000
2013-08-11 01:52:56,0.03,1.58,0.00,32.20,34.97,36.94,5.94,32.33,1005.84,2016.01,2778.26,2854.59,3082.07,350.94,311.71,23.38,0000 0000 0000 0000 000000
2013-08-11 01:53:56,0.10,1.58,0.00,32.23,34.97,36.95,5.70,32.04,1005.85,2016.01,2778.12,2854.34,3082.03,349.84,310.70,23.38,0000 0000 0000 0000 000000
2013-08-11 01:54:56,0.09,1.58,0.00,32.28,34.97,36.93,5.73,32.04,1005.83,2016.01,2778.06,2854.14,3082.01,349.67,310.50,23.39,0000 0000 0000 0000 000000
2013-08-11 01:55:57,0.06,1.58,0.00,32.28,34.97,36.95,5.72,32.00,1005.84,2016.01,2778.03,2854.07,3082.00,349.84,310.65,23.39,0000 0000 0000 0000 000000
2013-08-11 01:56:57,0.01,1.58,0.00,32.26,34.97,36.97,5.84,32.00,1005.84,2016.02,2778.01,2854.03,3082.00,350.31,311.09,23.40,0000 0000 0000 0000 000000
2013-08-11 01:57:57,0.04,1.58,0.00,32.29,34.97,36.99,5.73,32.13,1005.84,2016.01,2778.00,2854.01,3081.99,350.50,311.23,23.41,0000 0000 0000 0000 000000
2013-08-11 01:58:57,-0.01,1.58,0.00,32.28,34.98,36.99,5.77,31.92,1005.84,2016.00,2777.98,2854.00,3081.95,350.04,310.68,23.41,0000 0000 0000 0000 000000
2013-08-11 01:59:57,0.00,1.58,0.00,32.31,34.99,37.03,5.62,32.00,1005.85,2016.01,2777.85,2853.99,3081.78,349.42,310.32,23.42,0000 0000 0000 0000 000000
2013-08-11 02:00:58,0.05,1.58,0.00,32.31,35.00,37.04,5.78,31.88,1005.86,2016.00,2777.55,2853.96,3081.43,350.55,311.25,23.42,0000 0000 0000 0000 000000
2013-08-11 02:01:58,0.11,1.58,0.00,32.29,35.00,37.02,5.66,31.96,1005.84,2016.01,2777.28,2853.97,3081.26,349.85,310.80,23.43,0000 0000 0000 0000 000000
2013-08-11 02:02:58,0.07,1.58,0.00,32.31,35.00,37.02,5.83,32.08,1005.85,2016.01,2777.11,2853.88,3081.16,350.72,311.39,23.43,0000 0000 0000 0000 000000
2013-08-11 02:03:58,0.07,1.58,0.00,32.27,35.00,37.02,5.57,31.92,1005.86,2016.03,2777.07,2853.78,3081.07,349.24,309.76,23.44,0000 0000 0000 0000 000000
2013-08-11 02:04:58,0.05,1.58,0.00,32.32,35.00,37.06,5.57,31.88,1005.84,2016.02,2777.03,2853.65,3081.02,349.85,310.40,23.45,0000 0000 0000 0000 000000
2013-08-11 02:05:59,0.03,1.58,0.00,32.37,35.01,37.09,5.59,31.71,1005.82,2016.00,2777.01,2853.40,3081.00,349.21,310.11,23.45,0000 0000 0000 0000 000000
2013-08-11 02:06:59,0.06,1.58,0.00,32.35,35.02,37.12,5.78,31.88,1005.68,2016.00,2777.00,2853.23,3081.00,350.84,311.26,23.46,0000 0000 0000 0000 000000
2013-08-11 02:07:59,0.04,1.58,0.00,32.35,35.02,37.09,5.84,32.00,1005.53,2016.00,2776.99,2853.11,3081.00,349.78,310.44,23.46,0000 0000 0000 0000 000000
2013-08-11 02:08:59,0.02,1.58,0.00,32.36,35.02,37.10,5.65,31.67,1005.52,2016.00,2776.94,2853.04,3080.97,349.74,310.38,23.47,0000 0000 0000 0000 000000
2013-08-11 02:09:59,0.03,1.58,0.00,32.35,35.02,37.12,5.75,31.79,1005.44,2016.00,2776.70,2853.01,3080.89,350.27,310.84,23.48,0000 0000 0000 0000 000000
2013-08-11 02:11:00,0.06,1.58,0.00,32.38,35.03,37.13,5.83,31.79,1005.46,2016.00,2776.35,2853.00,3080.69,349.56,310.19,23.48,0000 0000 0000 0000 000000
2013-08-11 02:12:00,0.09,1.58,0.00,32.41,35.05,37.13,5.84,32.00,1005.50,2016.00,2776.13,2853.00,3080.36,350.94,311.39,23.49,0000 0000 0000 0000 000000
2013-08-11 02:13:00,0.07,1.59,0.00,32.41,35.05,37.16,5.82,32.08,1005.52,2016.00,2776.05,2853.00,3080.18,350.64,311.36,23.49,0000 0000 0000 0000 000000
2013-08-11 02:14:00,0.04,1.59,0.00,32.41,35.05,37.16,5.61,31.92,1005.57,2016.00,2776.01,2852.95,3080.08,349.53,310.17,23.50,0000 0000 0000 0000 000000
2013-08-11 02:15:01,0.03,1.59,0.00,32.38,35.06,37.14,5.76,31.96,1005.62,2016.00,2776.00,2852.82,3080.03,350.61,311.01,23.51,0000 0000 0000 0000 000000
2013-08-11 02:16:01,0.05,1.59,0.00,32.41,35.07,37.16,5.70,31.88,1005.56,2016.00,2775.97,2852.64,3080.01,350.10,310.97,23.51,0000 0000 0000 0000 000000
2013-08-11 02:17:01,0.05,1.59,0.00,32.44,35.07,37.18,5.81,31.88,1005.67,2016.00,2775.87,2852.33,3080.00,350.25,310.80,23.52,0000 0000 0000 0000 000000
2013-08-11 02:18:01,0.10,1.59,0.00,32.47,35.07,37.21,5.56,31.79,1005.61,2016.00,2775.59,2852.18,3080.00,349.24,309.86,23.52,0000 0000 0000 0000 000000
2013-08-11 02:19:01,0.09,1.59,0.00,32.51,35.08,37.24,5.64,31.67,1005.49,2016.00,2775.30,2852.07,3079.83,349.98,310.43,23.53,0000 0000 0000 0000 000000
2013-08-11 02:20:01,0.11,1.59,0.00,32.49,35.09,37.23,5.72,31.88,1005.49,2016.00,2775.14,2852.02,3079.55,349.89,310.27,23.53,0000 0000 0000 0000 000000
2013-08-11 02:21:02,0.07,1.59,0.00,32.51,35.10,37.22,5.70,31.79,1005.48,2016.00,2775.05,2852.00,3079.26,350.02,310.48,23.54,0000 0000 0000 0000 000000
2013-08-11 02:22:02,0.05,1.59,0.00,32.53,35.10,37.24,5.72,31.88,1005.44,2016.00,2775.00,2851.97,3079.10,349.67,310.12,23.55,0000 0000 0000 0000 000000
2013-08-11 02:23:02,0.04,1.59,0.00,32.52,35.11,37.24,5.73,31.75,1005.41,2016.00,2774.90,2851.95,3079.03,350.14,310.54,23.55,0000 0000 0000 0000 000000
2013-08-11 02:24:02,0.02,1.59,0.00,32.54,35.12,37.28,5.63,31.67,1005.40,2016.00,2774.66,2851.81,3079.01,349.66,310.07,23.56,0000 0000 0000 0000 000000
2013-08-11 02:25:02,0.09,1.59,0.00,32.53,35.12,37.30,5.70,31.71,1005.40,2016.00,2774.36,2851.49,3078.98,350.05,310.63,23.56,0000 0000 0000 0000 000000
2013-08-11 02:26:03,0.15,1.59,0.00,32.54,35.12,37.29,5.80,31.75,1005.41,2016.00,2774.14,2851.26,3078.91,350.48,310.82,23.57,0000 0000 0000 0000 000000
2013-08-11 02:27:03,0.10,1.59,0.00,32.56,35.14,37.29,5.79,31.75,1005.40,2015.98,2774.05,2851.14,3078.64,349.71,310.12,23.58,0000 0000 0000 0000 000000
2013-08-11 02:28:03,0.07,1.59,0.00,32.62,35.15,37.29,5.66,31.67,1005.39,2015.97,2774.02,2851.05,3078.32,349.91,310.47,23.58,0000 0000 0000 0000 000000
2013-08-11 02:29:03,0.07,1.59,0.00,32.59,35.15,37.29,5.73,31.71,1005.39,2015.99,2773.99,2851.02,3078.15,349.78,310.25,23.59,0000 0000 0000 0000 000000
2013-08-11 02:30:03,0.05,1.59,0.00,32.64,35.15,37.30,5.67,31.75,1005.41,2015.98,2773.94,2851.00,3078.05,349.61,309.95,23.59,0000 0000 0000 0000 000000
2013-08-11 02:31:04,0.02,1.59,0.00,32.66,35.17,37.34,5.77,31.75,1005.41,2015.96,2773.71,2850.98,3078.02,350.35,310.59,23.60,0000 0000 0000 0000 000000
2013-08-11 02:32:04,0.03,1.59,0.00,32.66,35.17,37.36,5.73,31.79,1005.40,2015.97,2773.38,2850.92,3078.00,350.86,310.68,23.60,0000 0000 0000 0000 000000
2013-08-11 02:33:04,0.09,1.59,0.00,32.66,35.18,37.36,5.66,31.71,1005.40,2015.98,2773.16,2850.68,3077.94,350.04,310.31,23.61,0000 0000 0000 0000 000000
2013-08-11 02:34:04,0.10,1.59,0.00,32.66,35.20,37.34,5.79,31.71,1005.40,2015.95,2773.06,2850.46,3077.64,350.59,310.79,23.62,0000 0000 0000 0000 000000
2013-08-11 02:35:05,0.09,1.59,0.00,32.69,35.20,37.35,5.75,31.71,1005.40,2015.90,2773.02,2850.21,3077.34,350.04,310.28,23.62,0000 0000 0000 0000 000000
2013-08-11 02:36:05,0.09,1.59,0.00,32.72,35.21,37.40,5.63,31.67,1005.40,2015.89,2772.93,2850.07,3077.14,349.37,309.65,23.63,0000 0000 0000 0000 000000